Weather History for PAWN - September, 2012

Change the Weather History Date:

Tuesday, September 25, 2012

  Actual Average Record
Temperature  
Mean Temperature 34 °F -  
Max Temperature 39 °F 38 °F 69 °F (2007)
Min Temperature 28 °F 25 °F 17 °F (2008)
Degree Days  
Heating Degree Days 32    
Moisture  
Dew Point 27 °F    
Average Humidity 81    
Maximum Humidity 93    
Minimum Humidity 61    
Precipitation  
Precipitation 0.00 in - - ()
Sea Level Pressure  
Sea Level Pressure 29.85 in    
Wind  
Wind Speed 7 mph (NE)    
Max Wind Speed 15 mph    
Max Gust Speed 20 mph    
Visibility 10 miles    
Events      
Averages and records for this station are not official NWS values.
T = Trace of Precipitation, MM = Missing Value Source: NWS Daily Summary

Daily Weather History Graph

Daily Weather History Graph

Search for Another Location

Airport or City:

Trip Planner

Search our weather history database for the weather conditions in past years. The results will help you decide how hot, cold, wet, or windy it might be!

Date:

Astronomy

Sep. 25, 2012 Rise Set
Actual Time 8:46 AM AKDT 8:38 PM AKDT
Civil Twilight 7:51 AM AKDT 9:32 PM AKDT
Nautical Twilight 6:44 AM AKDT 10:39 PM AKDT
Astronomical Twilight 5:25 AM AKDT 11:57 PM AKDT
Moon 7:35 PM AKDT (9/25) 2:30 AM AKDT (9/25)
Length of Visible Light 13h 41m
Length of Day
11h 52m
Waxing Gibbous, 81% of the Moon is Illuminated
Sep 25
Waxing Gibbous
Sep 29
Full
Oct 7
Last Quarter
Oct 15
New
Oct 21
First Quarter

Hourly Weather History & Observations

Time (AKDT) Temp. Windchill Dew Point Humidity Pressure Visibility Wind Dir Wind Speed Gust Speed Precip Events Conditions
12:16 AM 30.2 °F 22.6 °F 26.6 °F 86% 29.89 in 10.0 mi SSW 8.1 mph - N/A   Overcast
12:36 AM 30.2 °F 21.9 °F 28.4 °F 93% 29.89 in 8.0 mi South 9.2 mph - N/A   Overcast
12:56 AM 30.2 °F 22.6 °F 28.4 °F 93% 29.89 in 10.0 mi South 8.1 mph - N/A   Mostly Cloudy
1:16 AM 30.2 °F 20.8 °F 28.4 °F 93% 29.89 in 10.0 mi South 11.5 mph - N/A   Overcast
1:36 AM 30.2 °F 21.3 °F 28.4 °F 93% 29.89 in 10.0 mi South 10.4 mph - N/A   Overcast
1:56 AM 30.2 °F 21.9 °F 26.6 °F 86% 29.89 in 10.0 mi South 9.2 mph - N/A   Overcast
2:16 AM 30.2 °F 21.9 °F 28.4 °F 93% 29.89 in 10.0 mi South 9.2 mph - N/A   Overcast
2:36 AM 30.2 °F 21.3 °F 28.4 °F 93% 29.89 in 10.0 mi South 10.4 mph - N/A   Overcast
2:56 AM 32.0 °F 23.6 °F 28.4 °F 87% 29.89 in 10.0 mi South 10.4 mph - N/A   Overcast
3:16 AM 30.2 °F 22.6 °F 26.6 °F 86% 29.89 in 10.0 mi South 8.1 mph - N/A   Overcast
3:36 AM 30.2 °F 23.4 °F 26.6 °F 86% 29.89 in 10.0 mi South 6.9 mph - N/A   Overcast
3:56 AM 30.2 °F 23.4 °F 26.6 °F 86% 29.89 in 10.0 mi SSE 6.9 mph - N/A   Overcast
4:16 AM 30.2 °F 23.4 °F 26.6 °F 86% 29.89 in 10.0 mi SSE 6.9 mph - N/A   Overcast
4:36 AM 30.2 °F 23.4 °F 26.6 °F 86% 29.89 in 10.0 mi SSE 6.9 mph - N/A   Overcast
4:56 AM 30.2 °F 25.4 °F 26.6 °F 86% 29.89 in 10.0 mi SSE 4.6 mph - N/A   Overcast
5:16 AM 30.2 °F 23.4 °F 26.6 °F 86% 29.89 in 10.0 mi SSE 6.9 mph - N/A   Overcast
5:36 AM 30.2 °F 23.4 °F 26.6 °F 86% 29.89 in 10.0 mi SSE 6.9 mph - N/A   Overcast
5:56 AM 30.2 °F 26.7 °F 28.4 °F 93% 29.89 in 10.0 mi South 3.5 mph - N/A   Overcast
6:16 AM 30.2 °F 25.4 °F 26.6 °F 86% 29.89 in 10.0 mi SSE 4.6 mph - N/A   Overcast
6:36 AM 30.2 °F 25.4 °F 26.6 °F 86% 29.88 in 10.0 mi SSE 4.6 mph - N/A   Overcast
6:56 AM 30.2 °F 23.4 °F 26.6 °F 86% 29.88 in 10.0 mi SSE 6.9 mph - N/A   Overcast
7:16 AM 28.4 °F 22.2 °F 26.6 °F 93% 29.88 in 10.0 mi SSE 5.8 mph - N/A   Mostly Cloudy
7:36 AM 30.2 °F 23.4 °F 26.6 °F 86% 29.88 in 10.0 mi SSE 6.9 mph - N/A   Overcast
7:56 AM 30.2 °F 23.4 °F 26.6 °F 86% 29.89 in 10.0 mi South 6.9 mph - N/A   Overcast
8:16 AM 30.2 °F 23.4 °F 26.6 °F 86% 29.88 in 10.0 mi SSE 6.9 mph - N/A   Overcast
8:36 AM 30.2 °F 24.3 °F 26.6 °F 86% 29.89 in 10.0 mi SSE 5.8 mph - N/A   Overcast
8:56 AM 30.2 °F 24.3 °F 26.6 °F 86% 29.89 in 10.0 mi South 5.8 mph - N/A   Overcast
9:16 AM 30.2 °F 25.4 °F 26.6 °F 86% 29.89 in 10.0 mi South 4.6 mph - N/A   Overcast
9:36 AM 28.4 °F - 26.6 °F 93% 29.89 in 10.0 mi Calm Calm - N/A   Overcast
9:56 AM 28.4 °F - 26.6 °F 93% 29.89 in 10.0 mi Calm Calm - N/A   Overcast
10:16 AM 30.2 °F - 26.6 °F 86% 29.90 in 10.0 mi Calm Calm - N/A   Overcast
11:16 AM 30.2 °F - 26.6 °F 86% 29.90 in 10.0 mi Calm Calm - N/A   Overcast
11:36 AM 32.0 °F - 26.6 °F 80% 29.90 in 10.0 mi Calm Calm - N/A   Overcast
11:56 AM 32.0 °F - 26.6 °F 80% 29.90 in 10.0 mi Calm Calm - N/A   Overcast
12:16 PM 32.0 °F - 26.6 °F 80% 29.90 in 10.0 mi Calm Calm - N/A   Overcast
12:36 PM 32.0 °F - 26.6 °F 80% 29.90 in 10.0 mi Calm Calm - N/A   Overcast
12:56 PM 33.8 °F - 28.4 °F 81% 29.89 in 10.0 mi Calm Calm - N/A   Overcast
1:16 PM 33.8 °F - 28.4 °F 81% 29.89 in 10.0 mi Calm Calm - N/A   Overcast
1:36 PM 33.8 °F 29.6 °F 28.4 °F 81% 29.89 in 10.0 mi NE 4.6 mph - N/A   Overcast
1:56 PM 33.8 °F 28.6 °F 28.4 °F 81% 29.89 in 10.0 mi NNW 5.8 mph - N/A   Overcast
2:16 PM 33.8 °F 27.7 °F 30.2 °F 87% 29.88 in 10.0 mi NNW 6.9 mph - N/A   Overcast
2:36 PM 35.6 °F 29.9 °F 30.2 °F 81% 29.88 in 10.0 mi North 6.9 mph - N/A   Overcast
2:56 PM 35.6 °F 29.9 °F 28.4 °F 75% 29.87 in 10.0 mi North 6.9 mph - N/A   Overcast
3:16 PM 35.6 °F 30.7 °F 28.4 °F 75% 29.87 in 10.0 mi NNE 5.8 mph - N/A   Overcast
3:36 PM 35.6 °F 30.7 °F 28.4 °F 75% 29.86 in 10.0 mi NNE 5.8 mph - N/A   Overcast
3:56 PM 35.6 °F 29.9 °F 28.4 °F 75% 29.86 in 10.0 mi North 6.9 mph - N/A   Overcast
4:16 PM 37.4 °F 30.8 °F 28.4 °F 70% 29.85 in 10.0 mi North 9.2 mph - N/A   Mostly Cloudy
4:36 PM 37.4 °F 30.3 °F 28.4 °F 70% 29.84 in 10.0 mi NNE 10.4 mph 17.3 mph N/A   Mostly Cloudy
4:56 PM 37.4 °F 29.3 °F 28.4 °F 70% 29.83 in 10.0 mi North 12.7 mph - N/A   Scattered Clouds
5:16 PM 37.4 °F 30.8 °F 28.4 °F 70% 29.83 in 10.0 mi North 9.2 mph - N/A   Mostly Cloudy
5:36 PM 37.4 °F 29.8 °F 28.4 °F 70% 29.82 in 10.0 mi North 11.5 mph - N/A   Scattered Clouds
5:56 PM 37.4 °F 30.3 °F 26.6 °F 65% 29.81 in 10.0 mi NNE 10.4 mph - N/A   Clear
6:16 PM 39.2 °F 32.5 °F 26.6 °F 61% 29.80 in 10.0 mi North 10.4 mph - N/A   Partly Cloudy
6:36 PM 39.2 °F 32.0 °F 26.6 °F 61% 29.80 in 10.0 mi North 11.5 mph 18.4 mph N/A   Partly Cloudy
6:56 PM 37.4 °F 28.9 °F 26.6 °F 65% 29.79 in 10.0 mi North 13.8 mph 18.4 mph N/A   Clear
7:16 PM 37.4 °F 28.5 °F 26.6 °F 65% 29.78 in 10.0 mi North 15.0 mph 19.6 mph N/A   Clear
7:36 PM 37.4 °F 29.3 °F 26.6 °F 65% 29.78 in 10.0 mi North 12.7 mph - N/A   Clear
7:56 PM 37.4 °F 30.3 °F 26.6 °F 65% 29.77 in 10.0 mi North 10.4 mph - N/A   Clear
8:36 PM 35.6 °F 27.5 °F 24.8 °F 65% 29.77 in 10.0 mi North 11.5 mph - N/A   Clear
8:56 PM 35.6 °F 29.2 °F 24.8 °F 65% 29.77 in 10.0 mi North 8.1 mph - N/A   Clear
9:16 PM 33.8 °F 26.4 °F 26.6 °F 75% 29.76 in 10.0 mi NNW 9.2 mph - N/A   Clear
9:36 PM 32.0 °F 23.6 °F 24.8 °F 75% 29.76 in 10.0 mi North 10.4 mph - N/A   Clear
9:56 PM 32.0 °F 23.6 °F 24.8 °F 75% 29.75 in 10.0 mi NNW 10.4 mph - N/A   Clear
10:16 PM 30.2 °F 21.3 °F 24.8 °F 80% 29.75 in 10.0 mi North 10.4 mph - N/A   Clear
10:36 PM 30.2 °F 21.3 °F 24.8 °F 80% 29.75 in 10.0 mi North 10.4 mph - N/A   Clear
10:56 PM 30.2 °F 21.9 °F 24.8 °F 80% 29.75 in 10.0 mi North 9.2 mph - N/A   Clear
11:16 PM 30.2 °F 23.4 °F 24.8 °F 80% 29.75 in 10.0 mi NNW 6.9 mph - N/A   Clear
11:36 PM 30.2 °F 21.9 °F 24.8 °F 80% 29.74 in 10.0 mi NNW 9.2 mph - N/A   Clear
11:56 PM 30.2 °F 22.6 °F 24.8 °F 80% 29.74 in 10.0 mi NNW 8.1 mph - N/A   Clear